Weather in Verkhnelebyazhye

Russia / Astrakhan Oblast     46°45′00″N   47°48′41″E
temp.,
°C
wind,
m/s
gust,
m/s
humid.,
%
clouds,
%
prec.,
mm/h
press.,
hPa
HPBL,
m
9 may, sun
sun901:00+15sse4852100 0.0 1015231
04:00+14se49585 0.0 1014178
07:00+16se6136862 0.0 1013524
10:00+22sse91235100 0.0 10111257
13:00+24sse91135100 0.0 10101884
16:00+23sse101238100 0.0 10101422
19:00+22sse7124799 0.0 10091293
22:00+18se4863100 0.0 1009331
10 may, mon
mon1001:00+17sse3773100 0.0 1008364
04:00+10wnw111586100 1.7 1010729
07:00+9w91384100 5.0 1012826
10:00+10w91270100 5.2 1014876
13:00+12w91160100 0.3 10151468
16:00+13w71049100 1.2 10151726
19:00+13wsw684811 0.0 10161455
22:00+10ssw34621 0.0 101853
11 may, tue
tue1101:00+9ssw48665 0.0 1018139
04:00+8sw34720 0.0 102071
07:00+10sw126680 0.0 1021138
10:00+15se33445 0.0 10221065
13:00+19e553185 0.0 10211967
16:00+20ene6625100 0.0 10202400
19:00+19e5729100 0.0 1020686
22:00+15e354288 0.0 1020137
12 may, wed
wed1201:00+12ne335451 0.0 101933
04:00+11nne22650 0.0 101926
07:00+13n22690 0.0 1019157
10:00+18n11510 0.0 1019688
13:00+22ne23400 0.0 10181545
16:00+24ene33376 0.0 10181855
19:00+24ene23403 0.0 10171562
22:00+19s476223 0.0 1018228
13 may, thu
thu1301:00+17se347432 0.0 101892
04:00+15se34790 0.0 101874
07:00+17ese236948 0.0 1018180
10:00+22e33470 0.0 1018790
13:00+27se46375 0.0 10181509
16:00+30se68293 0.0 10162036
19:00+27se78341 0.0 1017862
22:00+22ese49390 0.0 1018170